Weather History for KFOZ - April, 2013

Change the Weather History Date:

Sunday, April 21, 2013

  Actual Average (KGPZ) Record (KGPZ)
Temperature  
Mean Temperature 32 °F -  
Max Temperature 37 °F 58 °F 93 °F (1980)
Min Temperature 26 °F 31 °F 9 °F (1945)
Degree Days  
Heating Degree Days 34    
Moisture  
Dew Point 23 °F    
Average Humidity 72    
Maximum Humidity 93    
Minimum Humidity 43    
Precipitation  
Precipitation 0.20 in - - ()
Sea Level Pressure  
Sea Level Pressure 30.09 in    
Wind  
Wind Speed 7 mph (South)    
Max Wind Speed 16 mph    
Max Gust Speed 25 mph    
Visibility 7 miles    
Events Rain , Snow    
Averages and records for this station are not official NWS values.
T = Trace of Precipitation, MM = Missing Value Source: NWS Daily Summary

Daily Weather History Graph

Daily Weather History Graph

Search for Another Location

Airport or City:

Trip Planner

Search our weather history database for the weather conditions in past years. The results will help you decide how hot, cold, wet, or windy it might be!

Date:

Astronomy

Apr. 21, 2013 Rise Set
Actual Time 6:13 AM CDT 8:13 PM CDT
Civil Twilight 5:40 AM CDT 8:46 PM CDT
Nautical Twilight 4:59 AM CDT 9:28 PM CDT
Astronomical Twilight 4:14 AM CDT 10:13 PM CDT
Moon 3:42 PM CDT (4/21) 3:55 AM CDT (4/21)
Length of Visible Light 15h 06m
Length of Day
13h 59m
Waxing Gibbous, 80% of the Moon is Illuminated
Apr 21
Waxing Gibbous
Apr 25
Full
May 2
Last Quarter
May 9
New
May 17
First Quarter

Hourly Weather History & Observations

Time (CDT) Temp. Windchill Dew Point Humidity Pressure Visibility Wind Dir Wind Speed Gust Speed Precip Events Conditions
12:13 AM 26.6 °F 21.2 °F 10.4 °F 51% 30.23 in 10.0 mi South 4.6 mph - N/A   Clear
12:33 AM 26.6 °F 21.2 °F 10.4 °F 51% 30.24 in 10.0 mi SSE 4.6 mph - N/A   Clear
12:53 AM 26.6 °F 20.0 °F 10.4 °F 51% 30.24 in 10.0 mi South 5.8 mph - N/A   Clear
1:13 AM 26.6 °F 20.0 °F 10.4 °F 51% 30.24 in 10.0 mi South 5.8 mph - N/A   Clear
1:33 AM 26.6 °F 21.2 °F 10.4 °F 51% 30.24 in 10.0 mi South 4.6 mph - N/A   Clear
1:53 AM 28.4 °F 23.3 °F 10.4 °F 47% 30.24 in 10.0 mi South 4.6 mph - N/A   Clear
2:13 AM 26.6 °F 20.0 °F 10.4 °F 51% 30.24 in 10.0 mi SSE 5.8 mph - N/A   Clear
2:33 AM 28.4 °F 23.3 °F 10.4 °F 47% 30.23 in 10.0 mi SSE 4.6 mph - N/A   Clear
2:53 AM 28.4 °F 21.2 °F 10.4 °F 47% 30.23 in 10.0 mi SSE 6.9 mph - N/A   Clear
3:13 AM 28.4 °F 22.2 °F 10.4 °F 47% 30.22 in 10.0 mi SSE 5.8 mph - N/A   Clear
3:33 AM 28.4 °F 24.6 °F 8.6 °F 43% 30.22 in 10.0 mi SE 3.5 mph - N/A   Clear
3:53 AM 26.6 °F 20.0 °F 10.4 °F 51% 30.21 in 10.0 mi SE 5.8 mph - N/A   Clear
4:13 AM 26.6 °F 20.0 °F 8.6 °F 47% 30.21 in 10.0 mi SE 5.8 mph - N/A   Clear
4:33 AM 26.6 °F 21.2 °F 8.6 °F 47% 30.20 in 10.0 mi SE 4.6 mph - N/A   Scattered Clouds
4:53 AM 26.6 °F 19.1 °F 8.6 °F 47% 30.20 in 10.0 mi SE 6.9 mph - N/A   Scattered Clouds
5:13 AM 26.6 °F 18.2 °F 8.6 °F 47% 30.19 in 10.0 mi SSE 8.1 mph - N/A   Mostly Cloudy
5:33 AM 26.6 °F 18.2 °F 8.6 °F 47% 30.19 in 10.0 mi SSE 8.1 mph - N/A   Overcast
5:53 AM 26.6 °F 19.1 °F 8.6 °F 47% 30.18 in 10.0 mi SSE 6.9 mph - N/A   Overcast
6:13 AM 26.6 °F 18.2 °F 10.4 °F 51% 30.18 in 10.0 mi SSE 8.1 mph - N/A   Overcast
6:33 AM 28.4 °F 21.2 °F 10.4 °F 47% 30.18 in 10.0 mi SSE 6.9 mph - N/A   Overcast
6:53 AM 28.4 °F 21.2 °F 12.2 °F 51% 30.17 in 10.0 mi SSE 6.9 mph - N/A   Overcast
7:13 AM 28.4 °F 21.2 °F 12.2 °F 51% 30.17 in 10.0 mi SSE 6.9 mph - N/A   Overcast
7:33 AM 28.4 °F 20.4 °F 14.0 °F 55% 30.16 in 10.0 mi SE 8.1 mph - N/A   Overcast
7:53 AM 30.2 °F 22.6 °F 15.8 °F 55% 30.16 in 10.0 mi SSE 8.1 mph - N/A   Overcast
8:13 AM 30.2 °F 22.6 °F 17.6 °F 60% 30.15 in 10.0 mi SE 8.1 mph - N/A   Mostly Cloudy
8:33 AM 32.0 °F 23.0 °F 21.2 °F 64% 30.14 in 10.0 mi SSE 11.5 mph 16.1 mph N/A   Mostly Cloudy
8:53 AM 32.0 °F 24.2 °F 21.2 °F 64% 30.13 in 10.0 mi SSE 9.2 mph - N/A   Overcast
9:13 AM 32.0 °F 24.2 °F 21.2 °F 64% 30.12 in 10.0 mi SSE 9.2 mph 17.3 mph N/A   Overcast
9:33 AM 33.8 °F 25.3 °F 23.0 °F 65% 30.11 in 10.0 mi SSE 11.5 mph 19.6 mph N/A   Overcast
9:53 AM 33.8 °F 24.3 °F 23.0 °F 65% 30.10 in 10.0 mi SSE 13.8 mph 18.4 mph N/A   Overcast
10:13 AM 33.8 °F 25.3 °F 24.8 °F 70% 30.10 in 10.0 mi SSE 11.5 mph 20.7 mph N/A   Overcast
10:33 AM 35.6 °F 27.1 °F 24.8 °F 65% 30.10 in 10.0 mi SSE 12.7 mph 20.7 mph N/A   Overcast
10:53 AM 35.6 °F 27.1 °F 24.8 °F 65% 30.09 in 10.0 mi SSE 12.7 mph 18.4 mph N/A   Overcast
11:13 AM 35.6 °F 27.5 °F 26.6 °F 70% 30.08 in 10.0 mi SSE 11.5 mph 16.1 mph N/A   Overcast
11:33 AM 35.6 °F 26.6 °F 26.6 °F 70% 30.07 in 10.0 mi SSE 13.8 mph 19.6 mph N/A   Mostly Cloudy
11:53 AM 37.4 °F 29.8 °F 28.4 °F 70% 30.06 in 10.0 mi SSE 11.5 mph 21.9 mph N/A   Mostly Cloudy
12:13 PM 37.4 °F 28.9 °F 28.4 °F 70% 30.05 in 10.0 mi SSE 13.8 mph 20.7 mph N/A   Overcast
12:33 PM 37.4 °F 28.2 °F 28.4 °F 70% 30.04 in 10.0 mi SSE 16.1 mph 25.3 mph N/A   Overcast
12:53 PM 37.4 °F 28.5 °F 30.2 °F 75% 30.03 in 10.0 mi SSE 15.0 mph 20.7 mph N/A Snow Light Snow
1:13 PM 37.4 °F 28.9 °F 30.2 °F 75% 30.03 in 4.0 mi South 13.8 mph 19.6 mph N/A Snow Light Snow
1:33 PM 35.6 °F 26.6 °F 30.2 °F 81% 30.02 in 4.0 mi SSE 13.8 mph 17.3 mph N/A Rain Rain
1:53 PM 35.6 °F 27.5 °F 30.2 °F 81% 30.01 in 7.0 mi South 11.5 mph 16.1 mph N/A Rain Light Rain
2:13 PM 35.6 °F 27.1 °F 30.2 °F 81% 30.01 in 2.0 mi South 12.7 mph 21.9 mph N/A Rain Heavy Rain
2:33 PM 35.6 °F 28.0 °F 32.0 °F 87% 30.00 in 1.5 mi South 10.4 mph 17.3 mph 0.02 in   Overcast
2:53 PM 33.8 °F 27.0 °F 30.2 °F 87% 30.00 in 0.8 mi South 8.1 mph - 0.01 in Snow Light Snow
3:13 PM 33.8 °F 27.7 °F 32.0 °F 93% 29.99 in 0.8 mi SSE 6.9 mph - 0.03 in Snow Light Snow
3:33 PM 33.8 °F 27.7 °F 32.0 °F 93% 29.99 in 0.8 mi SSE 6.9 mph - 0.06 in Snow Light Snow
3:53 PM 33.8 °F 27.7 °F 32.0 °F 93% 29.98 in 0.5 mi SSE 6.9 mph - 0.01 in Snow Snow
4:13 PM 33.8 °F 27.0 °F 32.0 °F 93% 29.98 in 0.8 mi South 8.1 mph - 0.04 in Snow Light Snow
4:33 PM 33.8 °F 27.7 °F 32.0 °F 93% 29.98 in 0.8 mi South 6.9 mph - 0.06 in Snow Heavy Snow
4:53 PM 33.8 °F 27.7 °F 32.0 °F 93% 29.98 in 0.8 mi South 6.9 mph - N/A Snow Light Snow
5:13 PM 33.8 °F 28.6 °F 32.0 °F 93% 29.98 in 0.8 mi SSE 5.8 mph - 0.02 in Snow Light Snow
5:33 PM 33.8 °F 28.6 °F 32.0 °F 93% 29.98 in 1.0 mi South 5.8 mph - 0.04 in Snow Light Snow
5:53 PM 33.8 °F 27.7 °F 32.0 °F 93% 29.98 in 1.5 mi South 6.9 mph - 0.01 in   Overcast
6:13 PM 33.8 °F 27.7 °F 32.0 °F 93% 29.98 in 2.0 mi South 6.9 mph - 0.01 in Rain Light Rain
6:34 PM 33.8 °F 27.7 °F 32.0 °F 93% 29.98 in 1.5 mi South 6.9 mph - 0.01 in Rain Light Rain
6:53 PM 33.8 °F 27.0 °F 32.0 °F 93% 29.98 in 1.2 mi South 8.1 mph - N/A Rain Light Rain
7:13 PM 33.8 °F 27.7 °F 32.0 °F 93% 29.98 in 2.0 mi SSW 6.9 mph - 0.01 in Rain Light Rain
7:33 PM 33.8 °F 27.7 °F 32.0 °F 93% 29.99 in 2.0 mi SSW 6.9 mph - 0.01 in Rain Light Rain
7:53 PM 33.8 °F 28.6 °F 32.0 °F 93% 29.99 in 2.0 mi SSW 5.8 mph - N/A   Overcast
8:13 PM 33.8 °F 27.7 °F 32.0 °F 93% 29.99 in 3.0 mi SSW 6.9 mph - N/A   Overcast
8:33 PM 33.8 °F 27.0 °F 32.0 °F 93% 30.00 in 4.0 mi SW 8.1 mph - N/A   Light Drizzle
8:53 PM 33.8 °F 27.7 °F 32.0 °F 93% 30.01 in 4.0 mi SW 6.9 mph - N/A   Drizzle
9:13 PM 33.8 °F 27.0 °F 32.0 °F 93% 30.02 in 4.0 mi WSW 8.1 mph - N/A   Drizzle
9:33 PM 35.6 °F 29.2 °F 33.8 °F 93% 30.03 in 7.0 mi West 8.1 mph 16.1 mph N/A   Light Drizzle
9:53 PM 33.8 °F 30.8 °F 32.0 °F 93% 30.04 in 7.0 mi WNW 3.5 mph - N/A   Overcast
10:13 PM 33.8 °F 30.8 °F 32.0 °F 93% 30.05 in 10.0 mi West 3.5 mph - N/A   Overcast
10:33 PM 33.8 °F 30.8 °F 30.2 °F 87% 30.05 in 10.0 mi WSW 3.5 mph - N/A   Overcast
10:53 PM 33.8 °F 30.8 °F 30.2 °F 87% 30.06 in 10.0 mi WSW 3.5 mph - N/A   Overcast
11:13 PM 33.8 °F 30.8 °F 30.2 °F 87% 30.06 in 10.0 mi WSW 3.5 mph - N/A   Overcast
11:33 PM 33.8 °F - 30.2 °F 87% 30.07 in 10.0 mi Calm Calm - N/A   Overcast
11:53 PM 33.8 °F 29.6 °F 30.2 °F 87% 30.07 in 10.0 mi WSW 4.6 mph - N/A   Overcast